TIME,DELAY(SENSOR),PRES,T(CTD),SAL,OXYGEN,RAWTEMP,T(OPTODE),TCPHASE,FLUOR,BETA(BETA700),BETA(BETA412),BETA(BETA440),CDOM,C(CSC),ED(ED412.40),ED(ED444.00),ED(ED489.70),ED(ED554.30),LU(LU411.80),LU(LU443.40),LU(LU489.60),LU(LU554.10),COMP,TILTX,TILTX(TILTY),CHECK
1342042399,5806,497.6700134277344000,6.9215998649597170,34.2047996520996100,64.5524902343750000,589.0773925781250000,6.9365439414978030,50.6653709411621100,52,105,90,79,79,15360,2147749613,2147420397,2148005056,2147874770,2147633261,2147080201,2148246244,2147199835,954,4,12,4960
1342042508,5807,487.1099853515625000,7.1076002120971680,34.1930999755859400,68.7213363647461000,584.4591064453125000,7.0851569175720215,50.0693397521972660,52,106,88,80,79,15364,2147747904,2147420589,2148004818,2147874870,2147629156,2147083318,2148242011,2147202569,721,5,13,15544
1342042620,5807,475.5100097656250000,7.2733001708984375,34.1846008300781250,75.3257064819336000,578.9741821289062000,7.2614102363586430,49.1682014465332000,51,106,91,81,80,15361,2147746678,2147423670,2147999881,2147874642,2147629933,2147082898,2148245266,2147202569,3548,4,13,29175
1342042718,5811,464.8500061035156000,7.4092998504638670,34.1782989501953100,80.1754837036132800,574.6994018554688000,7.3985838890075680,48.5213890075683600,52,109,90,80,80,15358,2147750710,2147420708,2147998875,2147872850,2147626057,2147084544,2148242112,2147201819,3391,4,13,54824
1342042816,5809,453.7600097656250000,7.5770998001098630,34.1843986511230500,82.6968307495117200,570.0803833007812000,7.5466251373291020,48.1544685363769500,52,106,88,81,79,15362,2147748315,2147422226,2148003748,2147874980,2147628333,2147086034,2148242770,2147204809,2774,4,13,60332
1342042932,5804,441.9100036621094000,7.7281999588012695,34.1699981689453100,89.6170272827148400,565.0250854492188000,7.7084350585937500,47.2826004028320300,51,109,90,81,79,15358,2147751990,2147424530,2148001590,2147877037,2147624329,2147088374,2148239972,2147205174,3383,4,13,34271
1342043052,5811,431.9599914550781000,7.7613000869750980,34.1712989807128900,94.4389038085937500,563.9232177734375000,7.7436728477478030,46.7293815612793000,50,106,88,81,78,15361,2147747666,2147421686,2147999689,2147875364,2147627254,2147091456,2148236278,2147202733,2814,4,13,54913
1342043207,5811,420.9800109863281000,7.9681000709533690,34.1643981933593750,99.1114807128906200,557.7069702148438000,7.9422821998596190,46.1247215270996100,51,110,92,81,77,15360,2147746112,2147421010,2148002221,2147874825,2147624859,2147085321,2148235885,2147201709,2661,4,13,38511
1342043426,5807,410.6700134277344000,8.2636995315551760,34.1585998535156250,111.0022964477539000,548.3305053710938000,8.2412443161010740,44.7379188537597660,51,106,89,81,79,15361,2147743113,2147421504,2148000182,2147875190,2147625746,2147090742,2148236205,2147204013,1468,4,13,38318
1342043643,5805,398.7500000000000000,8.6683998107910160,34.1376991271972660,136.2854003906250000,534.1520996093750000,8.6919479370117190,42.1239204406738300,50,110,86,82,77,15361,2147742802,2147421494,2148002395,2147874724,2147622729,2147094500,2148235053,2147202166,2158,5,13,27765
1342043818,5808,385.9200134277344000,9.0472002029418950,34.1316986083984400,148.0854949951172000,523.2891845703125000,9.0361881256103520,40.9357795715332000,50,112,88,81,75,15358,2147741293,2147421796,2148002505,2147878692,2147616877,2147094116,2148229056,2147201883,1349,4,13,42247
1342043930,5807,374.6199951171875000,9.3339996337890620,34.1304016113281250,160.6174926757812500,513.9495239257812000,9.3314485549926760,39.7793006896972660,50,108,90,81,75,15361,2147743021,2147421824,2148002029,2147875026,2147619529,2147099748,2148227181,2147207104,2018,3,13,17330
1342044028,5807,364.4500122070312500,9.5953998565673830,34.1327018737793000,170.4264984130859400,504.9418029785156000,9.6156044006347660,38.8914604187011700,49,105,88,80,73,15366,2147737929,2147420224,2148004882,2147876918,2147617371,2147107218,2148228470,2147206345,1121,3,13,23590
1342044128,5804,354.3399963378906000,9.9730997085571290,34.1357002258300800,182.7624969482422000,493.8752136230469000,9.9639263153076170,37.8365516662597660,50,107,92,80,71,15365,2147739337,2147420973,2148003904,2147874486,2147617700,2147103341,2148228233,2147205211,357,4,13,11605
1342044248,5811,342.5700073242187500,10.0757999420166020,34.1437988281250000,191.0251007080078000,490.3785095214844000,10.0738096237182620,37.2293281555175800,49,106,90,80,72,15363,2147737846,2147425142,2148004580,2147872411,2147612443,2147105481,2148224832,2147206317,381,4,13,59240
1342044368,5807,331.1799926757812500,10.3604001998901370,34.1511993408203100,196.6535949707031200,481.4312133789062500,10.3546104431152340,36.7192611694335940,50,107,89,80,72,15364,2147736356,2147423131,2148010962,2147874614,2147612388,2147106870,2148228909,2147206582,148,4,13,2141
1342044491,5809,320.2200012207031000,10.8510999679565430,34.1675987243652340,203.0610046386718800,465.5306091308594000,10.8523597717285160,36.0607795715332000,49,107,89,80,71,15364,2147736265,2147424384,2148020397,2147874029,2147606774,2147108233,2148228635,2147207369,69,4,13,30597
1342044622,5808,309.0199890136719000,11.1930999755859380,34.1879997253418000,208.8547973632812500,454.9424133300781000,11.1829500198364260,35.5420494079589840,49,105,88,81,71,15363,2147735451,2147424246,2148021056,2147876480,2147606226,2147116233,2148231396,2147209014,2158,4,14,61034
1342044744,5806,298.6900024414062500,11.5761995315551760,34.2065010070800800,210.6230926513672000,442.6377868652344000,11.5663204193115230,35.2398796081543000,49,106,88,80,71,15363,2147733952,2147430875,2148038052,2147873682,2147604096,2147120896,2148233243,2147209792,3181,4,14,18567
1342044875,5806,287.9299926757812500,11.9510002136230470,34.2240982055664060,211.2635040283203000,430.1281127929687500,11.9552297592163090,35.0023193359375000,48,107,90,81,70,15359,2147731995,2147434075,2148049883,2147873554,2147603337,2147122715,2148238372,2147211593,3012,4,14,60022
1342045017,5812,276.7399902343750000,12.3830995559692380,34.2453002929687500,207.8343963623047000,416.3656005859375000,12.3821601867675780,34.9833183288574200,49,105,89,80,69,15361,2147730304,2147433536,2148034294,2147875611,2147601499,2147122413,2148223990,2147207186,2664,4,14,28608
1342045162,5808,265.2699890136719000,13.0066995620727540,34.2925987243652340,209.9860992431640600,393.7385864257812500,13.0821199417114260,34.5045318603515600,49,107,90,81,71,15360,2147728118,2147450294,2148104886,2147878363,2147601673,2147137024,2148256502,2147212260,1842,4,14,41669
1342045304,5810,255.0099945068359400,13.5825996398925780,34.3399009704589840,212.2203979492187500,377.7518920898437500,13.5753402709960940,34.1305198669433600,48,105,94,80,70,15359,2147727277,2147437229,2148052434,2147876470,2147595227,2147137856,2148233517,2147213376,1547,4,14,31821
1342045458,5809,242.9400024414062500,14.3558998107910160,34.4049987792968750,211.7976989746093800,352.2567138671875000,14.3599500656127930,33.7681999206543000,49,106,87,80,67,15359,2147730011,2147488411,2148196068,2147877193,2147596114,2147168512,2148296685,2147215826,3164,4,14,13866
1342045578,5808,232.6300048828125000,14.9369001388549800,34.4635009765625000,211.8925018310547000,333.1915893554687500,14.9453096389770500,33.4788818359375000,48,105,89,79,68,15354,2147733238,2147527204,2148297856,2147875218,2147593691,2147200146,2148347565,2147221952,3299,3,14,54383
1342045711,5810,221.9400024414062500,15.9055004119873050,34.5639991760253900,211.8825988769531200,302.3511962890625000,15.8902301788330080,33.0269889831543000,49,105,88,81,66,15352,2147739492,2147576201,2148403611,2147877979,2147593380,2147225462,2148392283,2147225883,275,3,13,4796
1342045864,5809,211.0399932861328000,17.0137004852294920,34.6912002563476560,211.4432983398437500,266.4696044921875000,16.9874191284179700,32.5362892150878900,50,106,89,80,67,15350,2147751689,2147634971,2148506861,2147876041,2147591789,2147268946,2148437842,2147225974,873,3,14,31262
1342046028,5811,199.9400024414062500,17.6389007568359380,34.7588996887207000,210.6134033203125000,242.5783996582031200,17.7172107696533200,32.2450599670410160,53,108,89,81,66,15345,2147786459,2147805010,2148845878,2147878134,2147603236,2147372598,2148605248,2147242029,3003,3,15,36415
1342046106,5804,193.4199981689453000,18.3239002227783200,34.8236999511718750,208.9752960205078000,221.3661956787109400,18.3649997711181640,32.0401916503906250,56,107,90,82,66,15340,2147821056,2147925120,2149073517,2147874697,2147615286,2147437494,2148704265,2147251273,581,3,14,40132
1342046160,5812,188.8000030517578000,18.6779003143310550,34.8690986633300800,208.8271942138672000,210.7765960693359400,18.6884098052978500,31.9021301269531250,59,111,92,79,66,15337,2147845714,2147963392,2149112054,2147877558,2147623058,2147469513,2148724096,2147253010,399,3,14,31139
1342046214,5811,184.1000061035156200,18.8654003143310550,34.8959999084472660,209.6206054687500000,204.5886993408203000,18.8774108886718750,31.7729301452636720,62,113,90,81,64,15333,2147901138,2148152914,2149454006,2147878665,2147644525,2147563044,2148874971,2147264649,3545,2,14,4835
1342046268,5809,179.4100036621093800,19.0356006622314450,34.9193000793457000,210.0428924560547000,199.2053985595703000,19.0418605804443360,31.6756401062011720,64,112,91,83,66,15329,2147968475,2148318198,2149729600,2147880137,2147661888,2147656054,2148994989,2147277001,2820,3,15,28578
1342046342,5807,173.0700073242187500,19.2028999328613280,34.9482002258300800,210.9512939453125000,193.9862060546875000,19.2013092041015620,31.5545196533203120,67,110,91,82,66,15328,2148039570,2148461778,2149937563,2147880731,2147688475,2147718774,2149077924,2147282002,3174,3,15,41726
1342046396,5811,168.8600006103515600,19.5356998443603500,34.9824981689453100,210.3625946044922000,183.4490051269531200,19.5233192443847660,31.4434394836425780,71,113,90,82,64,15328,2148118592,2148639808,2150220315,2147883730,2147721289,2147813997,2149210797,2147293440,2466,2,15,2131
1342046450,5807,165.1300048828125000,19.8645000457763670,35.0209007263183600,210.9546966552734400,172.9730072021484400,19.8435897827148440,31.2692394256591800,73,116,89,82,65,15319,2148265234,2148988772,2150804041,2147883419,2147773659,2147985435,2149465481,2147312164,1975,3,15,23595
1342046515,5810,161.1799926757812500,20.0093002319335940,35.0424995422363300,211.8132934570312500,167.7814941406250000,20.0023593902587900,31.1524505615234380,79,116,92,84,64,15319,2148395090,2149230729,2151165622,2147887990,2147820361,2148103478,2149614134,2147326226,1159,2,15,31197
1342046580,5806,157.4600067138672000,20.1284999847412100,35.0601997375488300,212.4533996582031200,163.3408050537109400,20.1382007598876950,31.0583190917968750,77,117,89,82,64,15319,2148468178,2149273243,2151148608,2147889179,2147845860,2148115840,2149584941,2147326107,131,3,15,56631
1342046658,5810,153.8899993896484400,20.5301990509033200,35.0974998474121100,213.0328979492187500,151.3173065185547000,20.5061798095703120,30.8665904998779300,84,120,90,82,63,15306,2148759094,2149856722,2152069184,2147895625,2147951561,2148401965,2149983341,2147355510,2878,2,15,35886
1342046789,5809,150.0000000000000000,20.8076992034912100,35.1240005493164060,214.9342956542968800,142.0639953613281200,20.7895698547363280,30.6426792144775400,90,119,92,83,64,15298,2149075328,2150337682,2152708132,2147900736,2148071606,2148632210,2150251346,2147376914,2087,2,16,21056
1342046931,5807,146.0299987792968800,21.1847000122070300,35.1403007507324200,216.0617065429687500,131.1598052978515600,21.1237792968750000,30.4394092559814450,97,122,91,83,64,15292,2149527222,2151017691,2153573156,2147912548,2148240905,2148953152,2150609846,2147411977,3477,2,16,56
1342047049,5807,141.7700042724609400,21.3572998046875000,35.1624984741210940,218.1092987060547000,124.6853027343750000,21.3223495483398440,30.2481803894042970,97,123,91,83,63,15280,2150298340,2152107218,2154953737,2147922614,2148528045,2149453787,2151174272,2147456850,2987,2,16,53066
1342047147,5806,137.7899932861328000,21.8868999481201170,35.1990013122558600,220.4940948486328000,109.3114013671875000,21.7943401336669920,29.9259605407714840,108,123,95,84,65,15265,2149622080,2150541732,2152251392,2147905600,2148288658,2148732397,2150070144,2147373476,819,3,15,61104
1342047313,5809,133.3200073242187500,22.2103996276855470,35.2295989990234400,224.8907928466797000,96.1924667358398400,22.1976795196533200,29.5368804931640620,117,120,92,85,63,15253,2152794989,2155397238,2158840786,2147966326,2149464932,2150912758,2152739099,2147599478,2043,2,16,23434
1342047400,5810,129.9199981689453000,22.3803005218505860,35.2305984497070300,228.2861022949218800,90.7032928466796900,22.3666095733642580,29.3010406494140620,122,119,92,83,63,15248,2153146980,2155460077,2158439744,2147967168,2149598198,2150879277,2152505819,2147588196,2518,2,16,2742
1342047509,5809,125.6299972534179700,22.6324996948242200,35.2414016723632800,231.4266967773437500,83.2112731933593800,22.5973606109619140,29.0551605224609380,125,119,92,83,61,15242,2155596470,2158604882,2162052653,2148014189,2150543972,2152216338,2153932050,2147721673,3224,3,15,22630
1342047620,5808,121.7500000000000000,22.9405994415283200,35.2165985107421900,235.3784942626953000,72.5280532836914000,22.9267597198486330,28.7347393035888670,110,121,92,83,61,15239,2157716160,2161160237,2164691977,2148055652,2151482148,2153343734,2154994468,2147822921,2718,2,15,7125
1342047718,5808,117.8099975585937500,23.1811008453369140,35.2266006469726560,237.8307952880859400,64.8588104248046900,23.1635093688964840,28.5254802703857420,97,120,91,84,60,15244,2160167625,2163957211,2167432219,2148105334,2152695424,2154768009,2156287076,2147948534,2262,2,16,40822
1342047827,5806,114.1399993896484400,23.5361003875732420,35.2364006042480500,239.0814971923828000,54.9413299560546900,23.4700393676757800,28.3443508148193360,87,123,92,83,61,15247,2162790665,2166906212,2170255314,2148169600,2154086262,2156397540,2157735305,2148082157,2378,2,15,33380
1342047970,5808,109.6699981689453100,23.7705993652343750,35.2454986572265600,241.2368011474609400,46.1952705383300800,23.7407302856445300,28.1385993957519530,78,124,89,84,58,15238,2166599561,2170997494,2174063963,2148268608,2156415515,2159038829,2159987483,2148284443,819,2,15,49848
1342048068,5808,105.9199981689453100,23.6201000213623050,35.1637001037597660,244.7122039794922000,50.1282005310058600,23.6189594268798830,28.0333805084228500,79,125,93,86,58,15237,2170277952,2175036187,2177896246,2148379035,2158852992,2161734546,2162193636,2148476635,246,2,16,48805
1342048177,5806,101.5999984741211000,23.7600994110107420,35.1874008178710940,245.2581939697265600,46.0547294616699200,23.7450809478759770,27.9588909149169920,79,123,93,84,58,15228,2175185252,2180243968,2182793398,2148553472,2162250276,2165422445,2165163794,2148743122,3573,2,16,1396
1342048255,5808,97.9700012207031200,23.9768009185791000,35.2201995849609400,245.6157073974609400,39.1778717041015600,23.9581699371337900,27.8584003448486330,75,122,93,85,58,15228,2180910336,2186433115,2188860480,2148789376,2166027501,2169581366,2168569856,2149052425,559,2,15,5982
1342048309,5807,94.7799987792968800,24.0767993927001950,35.2341003417968750,246.0462951660156200,35.5064506530761700,24.0720291137695300,27.7942295074462900,72,123,91,85,56,15229,2185892845,2191456118,2193391149,2148987574,2169715456,2173466176,2171571446,2149331044,991,2,16,32399
1342048363,5811,91.5199966430664000,24.3437995910644530,35.2305984497070300,246.0997924804687500,27.4825706481933600,24.3211097717285160,27.6931800842285160,71,124,95,86,57,15230,2190691565,2196085302,2197498624,2149225654,2173610779,2177384073,2174396342,2149599497,1199,3,16,37617
1342048417,5806,89.0100021362304700,24.4731006622314450,35.2260017395019500,246.8090057373047000,23.0267295837402340,24.4595699310302730,27.6076908111572270,70,125,96,85,58,15212,2195049334,2200440182,2201316379,2149456923,2177193627,2181003913,2177060845,2149855369,1608,2,16,47897
1342048471,5806,87.0800018310546900,24.5912990570068360,35.2164001464843750,246.9403076171875000,19.6799602508544920,24.5636405944824220,27.5608901977539060,69,125,94,85,59,15215,2198946020,2204382089,2204936045,2149657810,2180334729,2184115611,2179312246,2150068672,1497,2,16,10645
1342048538,5808,85.2300033569336000,24.5888996124267580,35.2103004455566400,247.1235046386718800,18.9202194213867200,24.5872707366943360,27.5435905456542970,68,126,93,86,60,15220,2202953490,2208300150,2208402002,2149858560,2183958180,2187720036,2181910601,2150303625,2149,2,16,47948
1342048614,5809,83.4599990844726600,24.6665992736816400,35.1841011047363300,246.5227966308593800,16.7541103363037100,24.6546707153320300,27.5431098937988280,68,125,94,85,57,15215,2208242084,2213761755,2213307446,2150170459,2188243227,2191963154,2185030601,2150609938,2540,2,16,9889
1342048668,5810,82.4499969482421900,24.7199993133544920,35.1773986816406250,246.3287963867187500,14.8471498489379880,24.7140197753906250,27.5281791687011720,69,125,96,85,58,15223,2209492224,2214722742,2213851858,2150241938,2188982491,2192830317,2185419849,2150616100,2974,2,16,29382
1342048777,5807,80.5400009155273400,24.8150997161865230,35.1693992614746100,246.0690002441406200,11.8322095870971680,24.8078994750976560,27.5024604797363280,68,127,93,86,57,15208,2212926253,2218399277,2217446180,2150580269,2191534592,2194660937,2186491913,2150815268,2483,2,16,17605
1342048876,5808,77.9000015258789000,24.9228000640869140,35.1510009765625000,245.2613067626953000,8.5989294052124020,24.9086399078369140,27.4977397918701170,65,127,93,86,58,15209,2177911881,2177297929,2174363958,2148815049,2169938285,2169398884,2164612790,2148751597,2278,2,16,13880
1342048930,5810,75.6399993896484400,25.0519008636474600,35.1318016052246100,244.1340026855468800,5.0876231193542480,25.0181007385253900,27.5038108825683600,66,126,94,86,57,15209,2233188653,2238866678,2235941348,2151939062,2209913280,2212776054,2199921609,2152167698,2411,2,16,17471
1342048984,5809,73.7300033569336000,25.1644001007080080,35.1192016601562500,243.0713958740234400,1.4462020397186280,25.1317005157470700,27.5056800842285160,66,125,135,85,60,15209,2237062189,2242710546,2239341110,2152440649,2213869805,2215987958,2201878098,2152393270,2586,2,16,43051
1342049038,5811,72.3700027465820300,25.2280998229980470,35.1124992370605500,242.2378997802734400,-0.3924072086811066,25.1890907287597660,27.5196399688720700,66,123,96,84,57,15201,2241006957,2246870884,2243240704,2152822070,2217948333,2219884525,2204688374,2152707712,2282,2,16,31503
1342049170,5810,70.1299972534179700,25.4458007812500000,35.0912017822265600,239.3108978271484400,-8.3689928054809570,25.4382896423339840,27.5513706207275400,63,120,92,85,55,15208,2245568512,2251124032,2247072182,2153407570,2224326765,2225098066,2207837604,2153060589,771,1,16,42717
1342049246,5810,68.3000030517578100,25.4831008911132800,35.0886001586914060,238.1616973876953000,-9.7168474197387700,25.4804306030273440,27.5860099792480470,60,120,94,85,57,15216,2251315300,2257218907,2252641325,2154264292,2234923565,2234489078,2213927780,2153681261,3112,2,16,46012
1342049333,5817,66.3099975585937500,25.4976997375488280,35.0868988037109400,237.4243011474609400,-10.2793998718261720,25.4980297088623050,27.6121997833251950,59,117,91,84,58,15207,2257288548,2263602203,2258690057,2155076772,2244976118,2243005805,2219014957,2154261577,2712,2,16,9204
1342049420,5805,64.0800018310546900,25.4997005462646500,35.0868988037109400,237.2897949218750000,-10.3903303146362300,25.5014991760253900,27.6167392730712900,56,118,94,82,57,15208,2265115538,2271772534,2266756964,2156358619,2257768576,2253971190,2225584064,2154967753,2950,2,17,21464
1342049498,5809,61.2400016784668000,25.5009002685546880,35.0867996215820300,237.2236938476562500,-10.3904304504394530,25.5014991760253900,27.6197490692138670,57,118,95,84,60,15208,2278694363,2286715611,2281689737,2158450505,2277929462,2272259218,2237730898,2156412946,2880,2,16,20278
1342049552,5809,58.3699989318847660,25.5009994506835940,35.0873985290527340,237.3872985839843800,-10.4302597045898440,25.5027503967285160,27.6119899749755860,57,122,91,84,52,15205,2288458331,2297059821,2292429284,2161080054,2293132160,2285811145,2246354834,2157435794,2723,2,16,38479
1342049606,5806,55.2299995422363300,25.5018005371093750,35.0864982604980500,237.4598999023437500,-10.4176702499389650,25.5023498535156250,27.6086997985839840,54,119,93,84,58,15215,2196710573,2194455808,2188678070,2151199698,2202384018,2194418825,2178169243,2150289097,2606,2,16,32662
1342049660,5805,51.7999992370605500,25.5041999816894530,35.0867004394531250,237.3601989746093800,-10.3754796981811520,25.5010299682617200,27.6138191223144530,55,117,92,84,57,15208,2207789869,2205942765,2199935716,2153032009,2216657161,2207042587,2186462180,2151309083,2662,2,16,47345
1342049714,5816,48.2099990844726560,25.5048007965087900,35.0863990783691400,237.5270996093750000,-10.5316600799560550,25.5059204101562500,27.6044197082519530,56,117,90,84,59,15206,2331365906,2342418240,2338729179,2174763584,2357066505,2342576457,2283351241,2163096320,2701,2,16,40287
1342049768,5808,44.6599998474121100,25.5034008026123050,35.0867004394531250,237.5738067626953000,-10.5626401901245120,25.5068893432617200,27.6018505096435550,55,119,91,83,58,15206,2339841673,2350828818,2347605824,2180362441,2377196534,2359626925,2294412571,2165130468,2510,2,16,25883
1342049825,5807,41.0299987792968750,25.5034008026123050,35.0863990783691400,237.6161956787109400,-10.6438703536987300,25.5094299316406250,27.5990600585937500,53,116,91,85,58,15205,2255287561,2254610688,2246918226,2164460525,2285659648,2268132141,2226564288,2156827410,2383,1,16,23761
1342049879,5808,37.7099990844726560,25.5084991455078120,35.0862007141113300,237.6244964599609400,-10.6429901123046880,25.5093994140625000,27.5986099243164060,54,118,91,85,57,15196,2251177846,2250301028,2243366454,2166413842,2285583808,2267026477,2225293979,2157130450,2394,3,15,12639
1342049933,5808,34.6300010681152340,25.5095005035400400,35.0863990783691400,237.8112030029297000,-10.8252296447753900,25.5151004791259770,27.5879898071289060,53,118,94,84,54,15209,2264821723,2263069257,2254681837,2170684818,2315303780,2291589394,2240131675,2159235995,2430,2,16,25604
1342049987,5808,31.6599998474121100,25.5118007659912100,35.0863990783691400,237.8020935058593800,-10.9410800933837890,25.5187301635742200,27.5870704650878900,53,119,92,83,56,15205,2407171638,2423020662,2424156379,2223234313,2477241782,2447017563,2351841901,2179212260,2602,2,16,25031
1342050041,5817,28.7399997711181640,25.5177001953125000,35.0858001708984400,237.8119964599609400,-11.1861600875854500,25.5263900756835940,27.5835895538330080,53,116,95,85,57,15213,2423796342,2440855094,2444678528,2240731483,2488947520,2454823981,2355599030,2182481298,2629,3,16,23061
1342050095,5808,25.8600006103515620,25.5193996429443360,35.0861015319824200,237.9089050292968800,-11.3528604507446290,25.5316104888916000,27.5773105621337900,53,117,92,83,56,15211,2430792338,2446143460,2448869430,2251744969,2525596352,2488085924,2378311424,2188414729,2498,2,15,51783
1342050152,5806,22.7900009155273440,25.5293006896972660,35.0858993530273440,238.0193023681640600,-11.6311798095703120,25.5403099060058600,27.5689201354980470,52,117,92,83,56,15219,2465240466,2484860443,2491824585,2286221558,2564478509,2522563108,2401984301,2197768045,2578,3,15,26294
